RH
9 13 18 25 28 25 17 14 15 14 14 13 9 6 5 4 3 2 3 3 4 6 7 9 8 8 10 14 26 36 40 40 42 50 70 66 54 66 67 76 83 80 91 81 66 60 53 48 43 40 39 39 39 41 44 56 73 82 82 79 73 65 63 63 61 68 72 72 73 74 75 72 73 73 71 73 74 75 78 78 79 84 86 87 91 91 91 91 90 88 85 86 90 92 89 93 91
22 27 26 26 22 18 15 13 14 12 13 14 9 6 4 3 2 2 2 2 5 11 11 10 10 10 13 14 16 31 42 40 41 49 58 56 57 66 69 78 80 82 88 77 66 58 51 46 41 41 40 39 40 40 41 50 67 79 82 80 75 68 62 63 66 68 68 69 71 74 76 72 71 64 60 64 65 67 73 79 82 83 82 83 88 87 87 88 88 84 81 84 90 93 91 93 90
33 34 22 16 12 13 13 12 15 12 10 10 7 5 3 2 2 3 3 4 9 13 12 11 13 11 14 15 14 32 45 39 40 46 52 57 59 66 72 77 80 83 83 78 73 60 47 43 41 41 40 40 41 40 41 47 61 76 82 81 78 71 66 64 68 71 68 69 71 75 74 68 61 55 57 60 61 66 72 79 84 83 81 82 84 82 82 82 84 81 79 86 91 93 91 90 88
29 30 18 12 10 11 11 11 13 11 9 7 5 4 4 4 3 6 6 8 10 10 11 11 12 13 21 27 23 35 44 37 40 45 50 56 61 68 72 76 79 80 80 80 79 65 47 42 42 41 41 40 41 41 42 47 60 74 79 81 79 75 72 68 71 72 69 69 72 74 71 63 56 54 56 58 64 71 75 78 83 87 85 83 81 79 78 79 81 81 81 87 91 89 90 91 86
21 22 14 11 12 12 11 11 9 8 8 5 5 5 6 7 8 10 9 10 10 9 10 11 14 16 29 36 31 38 41 40 44 46 49 56 65 72 73 74 75 76 78 77 80 70 48 43 44 42 42 40 42 42 43 47 59 70 74 77 78 77 75 72 73 71 69 70 74 74 68 60 54 50 48 54 64 70 77 74 69 75 82 83 81 80 79 79 81 82 83 87 90 90 92 92 87
15 16 12 11 11 12 14 14 10 7 6 5 5 5 8 10 12 12 11 12 9 10 9 12 15 19 36 38 35 43 42 42 45 45 51 59 66 72 75 73 71 75 76 77 84 70 48 46 45 43 42 41 43 43 43 45 53 62 67 73 76 78 77 75 73 70 70 71 74 72 62 54 48 46 48 56 61 64 74 72 60 58 69 81 82 81 81 81 82 83 85 88 89 89 87 86 86
12 13 11 10 9 10 14 13 10 7 5 4 4 3 7 11 13 12 11 12 10 10 9 13 14 21 37 38 39 45 42 43 45 46 54 61 63 69 76 74 72 76 78 82 85 67 51 51 47 44 42 42 43 44 44 44 49 55 62 69 74 77 77 75 72 70 71 71 70 65 54 48 49 53 57 61 63 65 70 71 64 55 60 75 79 79 81 81 81 84 84 84 85 82 76 77 83
10 11 10 11 10 9 10 9 7 6 5 3 4 3 7 11 11 11 9 10 11 10 10 12 14 22 32 37 47 48 45 47 48 52 56 60 60 64 73 76 77 78 80 85 84 66 56 55 49 46 43 44 44 45 45 44 50 55 59 64 69 72 72 72 71 71 70 68 65 58 51 51 56 59 61 63 63 63 65 68 65 59 58 66 76 79 79 78 79 83 80 80 82 77 72 76 80
8 9 10 13 12 10 9 8 6 5 4 3 3 3 6 7 7 8 7 7 8 10 12 12 15 25 31 40 53 50 49 52 51 53 55 61 61 61 67 74 79 79 81 86 80 67 63 58 51 48 44 45 45 46 46 46 53 58 60 62 64 65 67 70 70 69 66 65 61 54 52 55 60 60 63 64 62 63 63 63 62 62 61 64 71 76 78 75 78 81 79 80 78 73 73 77 78
7 8 10 13 13 11 9 7 6 5 4 3 3 3 4 4 6 6 6 6 7 9 11 12 17 23 31 46 58 56 54 53 53 55 55 61 62 62 64 70 78 78 84 86 78 69 68 63 55 50 46 46 46 47 47 46 53 58 60 61 61 60 63 68 67 64 61 61 59 55 55 58 61 61 64 63 62 63 62 60 60 60 62 67 68 75 80 73 74 77 79 78 72 72 73 74 74
8 7 8 11 11 11 9 7 5 5 4 3 3 3 4 4 6 5 5 5 5 9 9 15 19 18 31 51 61 58 57 53 52 55 54 58 60 62 62 67 76 80 85 86 82 75 70 67 60 53 48 48 47 48 49 48 50 53 56 59 58 56 59 62 61 59 58 60 59 58 62 65 67 68 68 65 63 62 60 59 59 59 59 66 69 76 79 71 68 73 79 74 68 71 71 73 74
10 9 8 10 10 9 8 6 5 4 4 3 3 4 4 3 5 4 4 4 4 8 10 16 16 19 38 56 63 56 57 57 52 54 54 56 57 58 57 63 73 77 82 83 85 80 73 70 64 59 53 49 49 50 51 50 50 51 51 53 55 54 55 57 57 58 60 62 63 67 71 75 79 78 74 69 68 65 61 59 59 60 60 65 68 72 73 70 69 72 76 70 69 74 72 76 74
10 9 9 10 9 7 6 5 5 4 4 3 4 4 4 3 5 4 4 4 4 6 8 13 15 27 45 55 63 57 56 58 53 53 53 55 57 58 55 59 69 75 80 80 85 85 79 74 68 67 58 53 57 53 54 54 52 53 52 50 53 54 56 59 59 61 63 65 69 73 76 80 84 83 80 74 73 69 63 61 61 60 63 65 65 69 74 74 74 74 72 67 73 77 73 76 69
8 7 8 10 8 8 7 6 4 5 5 4 5 4 4 4 4 4 4 4 4 5 5 12 18 36 50 54 66 62 57 56 55 56 54 58 60 60 58 57 66 72 77 78 82 83 77 72 68 69 58 58 66 59 61 64 58 54 55 54 54 56 60 62 63 63 63 68 72 73 75 76 79 83 83 79 77 73 65 63 63 63 66 66 64 68 73 77 78 76 72 69 75 77 73 72 65
7 6 8 8 8 8 7 6 4 5 5 5 5 4 5 5 4 4 5 4 4 4 4 12 17 32 45 48 59 60 55 54 55 58 57 61 61 62 61 58 61 66 71 74 81 84 77 72 69 68 61 63 69 65 69 75 74 63 55 58 59 60 62 64 65 64 64 71 76 75 73 71 74 79 82 83 81 76 68 64 64 65 66 64 65 66 68 75 77 76 74 70 72 72 69 67 64
6 6 9 10 10 8 7 5 4 5 4 5 5 4 5 4 4 4 5 5 4 3 5 12 14 25 34 33 44 51 53 55 56 59 58 60 61 63 63 59 57 59 66 70 78 84 81 76 74 71 65 70 72 68 68 72 81 73 58 59 64 66 65 65 65 64 66 76 86 85 83 80 77 77 80 85 87 82 70 63 64 63 63 61 63 66 67 69 73 77 74 67 67 67 67 69 67
6 7 10 10 10 8 6 4 4 5 4 5 5 5 6 5 4 4 5 5 6 4 5 13 16 25 29 26 39 50 55 59 58 59 58 61 62 63 64 61 58 58 64 68 75 82 84 81 77 74 70 79 79 70 68 65 73 76 64 61 66 72 70 66 66 63 66 80 85 79 85 85 77 77 80 83 87 87 75 65 63 59 56 55 57 64 68 69 70 75 74 68 67 68 70 71 67
7 9 10 10 9 7 5 4 4 4 4 5 6 6 6 6 5 5 7 7 7 6 6 19 29 35 37 36 44 52 56 59 58 56 57 61 62 60 61 62 60 61 65 66 70 78 87 85 76 75 73 82 84 74 73 67 70 78 70 62 64 74 77 70 65 61 66 80 75 67 79 79 72 75 77 76 76 78 74 68 66 59 53 50 50 56 64 70 70 73 75 71 68 71 72 67 65
8 9 9 9 7 5 4 4 4 4 5 5 6 6 6 6 5 6 10 10 9 7 7 24 39 42 46 48 51 55 55 57 56 52 54 58 61 61 61 65 63 64 68 65 66 70 78 80 74 75 76 85 88 78 77 74 79 86 72 61 63 74 85 79 72 68 70 82 80 73 77 74 74 79 78 74 70 71 67 63 66 59 51 49 47 49 56 65 71 73 72 70 68 68 66 65 69
7 8 9 8 5 4 4 3 4 5 4 5 5 5 6 5 5 8 11 11 9 8 6 21 41 46 49 50 51 55 55 54 53 51 53 53 57 60 61 67 66 64 69 66 68 73 72 71 69 71 70 78 88 85 85 83 85 86 71 62 67 75 84 83 82 80 75 81 85 77 74 75 78 87 88 80 75 76 69 64 67 58 51 54 51 52 59 64 70 75 72 68 65 61 59 64 73
7 7 8 6 4 4 4 4 4 5 5 5 5 5 6 4 6 9 10 11 9 8 4 13 34 44 47 50 50 53 54 52 51 51 53 53 55 57 58 63 65 64 65 65 69 72 68 62 60 65 63 64 77 84 89 88 82 78 70 68 72 74 75 78 83 82 75 76 80 76 79 85 84 90 92 84 80 79 73 69 71 62 57 66 63 61 71 72 72 80 78 67 64 61 58 61 63
7 6 6 5 4 4 4 4 4 5 5 5 6 5 5 5 6 7 9 11 9 13 11 7 22 34 40 48 51 52 53 52 52 53 52 54 52 52 58 60 62 65 64 65 66 63 61 60 59 64 65 65 69 71 74 76 76 75 75 78 77 74 74 78 82 77 71 71 75 77 82 83 82 88 86 89 90 83 80 74 71 66 65 74 73 71 76 72 73 83 82 71 70 66 60 60 55
6 6 6 5 5 5 4 4 5 5 6 6 6 5 5 6 5 6 9 10 10 21 23 15 22 31 36 45 51 53 54 54 56 55 50 51 47 46 57 59 60 66 67 67 64 61 57 56 60 61 62 68 70 65 62 62 69 72 77 83 81 77 78 86 90 79 73 76 74 75 80 79 79 81 78 91 98 84 78 76 73 68 70 82 80 75 73 69 73 78 79 75 72 67 63 62 55
6 6 5 5 4 5 4 4 5 5 6 5 5 5 6 5 6 8 9 8 12 23 26 25 27 31 36 43 49 55 56 54 54 50 46 48 44 41 50 56 56 62 69 67 61 60 54 53 57 57 59 65 68 67 67 68 70 65 65 72 74 75 76 80 85 81 86 89 80 75 75 74 74 73 70 83 93 81 70 72 77 68 66 82 81 72 67 69 74 72 74 75 70 69 67 64 59
5 6 5 5 4 4 5 4 5 5 5 5 5 6 5 5 7 9 9 8 13 20 22 25 27 31 41 46 50 55 56 55 51 46 46 45 44 47 52 56 53 56 64 60 56 54 51 52 51 53 61 62 64 67 65 67 68 62 59 60 62 69 71 68 66 70 88 90 81 78 72 68 68 65 64 70 81 82 75 76 80 70 63 76 78 69 64 67 71 68 70 73 70 71 71 68 65
5 6 5 4 4 5 5 4 5 5 5 5 6 6 5 5 7 9 11 9 11 15 15 18 23 28 38 45 51 56 56 54 49 45 45 40 46 58 56 50 48 50 56 52 49 47 43 46 46 51 58 54 56 61 61 59 59 60 60 57 56 64 72 72 64 63 75 75 70 73 72 75 75 68 67 69 72 79 85 84 79 70 65 71 71 63 62 65 66 67 70 69 65 66 68 69 68
5 5 5 4 4 4 5 5 4 4 5 5 6 6 6 5 8 12 13 10 9 11 13 16 20 24 32 43 50 52 52 52 48 44 42 41 55 64 50 40 42 43 46 43 42 44 41 42 45 47 49 50 49 49 55 59 57 58 57 56 56 60 66 68 67 67 69 65 63 67 67 74 78 73 74 75 76 85 91 84 79 74 65 66 63 58 63 67 65 65 67 65 61 60 62 66 68
4 5 6 5 5 4 5 5 5 5 5 6 5 5 7 6 8 13 13 10 8 9 13 17 18 22 28 37 45 46 48 50 46 41 42 45 54 56 43 36 39 39 39 39 40 43 41 40 43 45 45 50 51 45 47 51 51 52 52 55 61 68 68 61 63 68 70 69 68 67 64 67 74 75 80 84 85 89 83 74 81 82 72 69 67 64 67 69 67 65 64 63 60 58 62 66 67
5 6 7 7 6 6 5 5 5 5 5 5 5 6 8 7 7 11 11 10 8 8 11 13 14 23 29 33 44 48 45 45 41 41 48 48 43 41 37 35 37 37 38 41 42 42 41 41 43 47 46 44 48 50 48 47 46 45 47 49 62 79 79 71 68 67 70 74 68 65 66 67 69 72 79 86 85 80 72 73 86 87 81 76 74 74 69 69 71 68 68 66 59 58 65 70 68
6 6 7 7 7 6 5 5 5 5 5 5 6 9 9 7 7 10 11 9 9 9 11 10 7 18 31 38 48 50 41 38 40 45 50 44 39 37 34 36 36 36 40 41 40 41 43 43 45 48 46 41 47 51 47 49 49 47 47 46 57 72 72 71 75 74 76 77 69 67 69 66 65 69 75 79 80 75 64 69 84 87 84 76 76 80 71 70 72 68 68 65 60 55 58 67 69
7 6 6 6 7 7 5 5 5 5 5 5 6 9 8 6 7 10 10 9 9 9 10 10 10 18 31 38 43 41 33 31 34 41 43 37 39 39 34 37 36 36 40 38 36 42 43 43 47 49 45 45 50 50 47 50 51 49 50 51 57 63 62 66 74 79 77 72 68 67 69 65 64 69 70 71 74 67 54 61 81 86 81 76 81 87 79 77 75 71 69 63 62 59 59 66 66
7 7 8 7 7 7 5 5 5 5 5 5 7 8 7 6 7 8 8 8 9 10 9 10 15 21 28 32 34 34 28 27 30 33 37 38 41 41 38 39 36 36 37 35 37 42 43 44 50 53 51 50 51 51 51 52 52 49 50 52 53 53 57 61 68 75 71 67 66 66 71 69 67 68 65 67 74 65 50 58 80 87 82 78 84 90 87 84 78 77 78 68 62 65 69 72 68
8 8 9 9 6 6 6 6 5 5 6 6 7 7 7 6 6 7 7 7 7 8 9 12 19 21 20 23 31 38 33 26 27 32 36 37 40 41 40 39 37 36 35 35 39 41 43 47 52 58 57 55 54 53 50 48 49 48 47 50 49 48 51 53 58 67 67 68 67 68 73 68 70 76 66 66 79 72 52 59 84 92 88 85 85 90 93 93 84 77 79 74 66 67 69 72 77
10 8 8 9 7 6 7 7 5 5 6 6 7 7 6 6 7 7 6 6 6 7 8 11 22 26 22 28 42 52 51 42 33 33 37 36 38 39 37 39 38 35 33 35 38 40 44 47 53 59 59 57 54 50 47 44 46 45 42 43 42 41 45 47 50 58 64 69 68 68 71 66 68 75 67 64 79 80 62 69 92 94 93 93 86 88 91 91 86 77 78 77 70 69 72 80 86
14 11 9 8 7 7 6 7 6 6 6 6 7 7 6 7 7 7 6 6 6 7 8 8 19 31 35 48 60 60 64 68 53 37 36 38 37 35 33 36 38 34 33 37 40 40 43 48 53 56 57 57 50 47 48 45 43 40 36 36 32 33 41 44 46 52 59 65 67 68 70 70 69 69 67 65 75 78 68 76 92 90 94 94 88 91 90 84 79 75 81 83 80 79 81 88 86
14 12 9 8 9 7 6 7 6 6 7 7 8 7 6 6 7 7 6 7 7 7 9 10 15 28 39 52 62 60 62 73 63 39 33 36 35 34 31 31 35 34 34 40 42 41 44 49 55 55 55 53 48 47 47 43 41 38 35 35 34 36 42 45 47 51 54 58 63 64 65 67 67 64 63 62 66 68 65 71 80 83 88 88 89 94 92 87 79 72 79 83 84 84 83 84 80
14 13 10 8 9 8 6 7 6 6 8 8 7 7 6 6 7 7 6 8 8 7 10 11 10 19 32 41 54 60 60 61 52 34 30 31 31 33 29 26 33 36 36 41 43 42 45 50 55 55 52 48 46 45 42 39 39 37 36 37 37 36 38 43 48 51 54 57 57 56 57 57 56 57 57 57 61 66 65 63 64 74 84 85 86 86 85 89 85 75 75 74 74 77 80 82 78
15 14 11 9 10 8 7 7 7 7 10 10 8 8 7 7 7 7 7 7 7 7 10 11 9 11 17 24 43 55 53 48 38 33 33 27 27 32 28 26 33 38 39 41 43 43 45 50 55 55 46 41 42 40 37 37 35 34 34 36 36 36 36 41 46 48 50 52 51 49 51 51 49 48 48 49 53 59 62 58 57 67 78 84 87 85 81 85 85 77 73 73 71 71 77 79 75
15 14 11 11 9 7 10 11 8 8 11 11 9 9 8 8 7 6 7 7 9 9 9 11 10 10 10 11 32 48 46 40 34 35 36 25 24 30 31 30 32 37 42 42 42 43 45 47 51 53 43 34 37 37 33 33 32 32 33 34 37 39 39 41 42 44 45 47 50 51 53 52 50 47 44 45 48 51 54 55 56 61 68 78 85 87 85 83 83 78 71 73 73 74 82 81 75
14 13 11 11 8 8 12 14 11 8 10 11 10 10 10 9 8 7 9 8 9 10 9 11 9 10 12 8 22 40 43 39 35 36 33 27 28 29 33 36 32 34 41 43 42 43 46 45 45 46 38 31 34 35 33 33 34 34 35 37 39 39 38 37 40 43 46 50 53 54 54 51 50 50 48 48 51 51 49 48 51 56 62 68 73 77 82 84 85 78 70 72 75 80 89 88 83
13 13 12 11 9 8 10 13 13 11 13 13 12 14 14 11 9 9 10 7 8 9 7 9 8 8 12 11 17 34 45 43 39 39 33 32 35 32 32 36 32 32 38 43 45 46 45 43 44 44 37 32 32 33 34 36 38 37 38 38 35 34 34 36 41 42 44 50 53 53 53 51 49 52 52 52 53 52 50 47 46 50 56 59 61 64 70 76 80 78 77 79 81 84 84 83 84
13 13 12 10 10 10 10 13 15 18 19 16 15 20 17 11 9 11 9 7 8 10 7 7 9 8 9 12 15 26 43 48 42 37 33 35 39 36 33 33 33 33 36 39 44 49 45 39 45 46 37 32 29 32 37 38 40 40 39 36 31 30 35 39 40 40 43 49 51 52 53 53 52 53 53 54 54 51 50 49 46 48 51 53 54 56 58 60 62 67 76 79 78 81 78 78 82
16 15 12 10 11 12 12 14 16 21 21 16 15 20 18 12 10 10 9 8 9 10 10 8 9 9 7 10 12 14 29 43 43 38 36 36 37 37 36 33 31 31 34 38 41 47 45 42 46 42 35 32 29 35 39 38 41 40 38 34 29 31 37 41 41 39 42 47 50 53 53 53 54 54 54 55 55 54 53 50 45 43 44 44 45 50 52 52 56 61 68 69 68 72 74 77 82
18 16 13 10 11 13 13 13 16 18 16 14 14 15 18 16 12 10 8 8 10 10 12 10 8 9 8 9 11 11 16 27 33 40 46 42 36 37 37 36 34 28 30 37 41 44 43 44 45 37 35 33 30 37 38 37 40 37 34 30 27 33 38 40 40 39 42 46 49 51 52 53 54 55 55 55 54 53 52 48 42 39 40 41 45 52 54 56 60 61 62 62 60 61 64 70 77
15 13 11 11 12 12 11 11 13 14 15 17 15 13 18 19 13 10 8 8 10 12 12 11 8 8 9 9 9 10 13 16 17 27 43 45 39 38 36 36 35 29 31 39 44 44 41 44 44 36 37 34 32 38 36 34 36 32 30 28 29 35 37 37 39 38 40 45 47 49 51 52 52 51 50 48 46 45 45 43 39 38 35 36 42 47 53 58 60 61 60 57 54 56 57 58 63
13 12 12 12 12 11 11 12 11 14 19 20 16 14 18 19 15 11 10 10 12 13 12 11 10 9 9 11 12 11 12 14 12 15 28 34 35 39 37 36 33 29 34 42 48 48 41 44 45 36 37 37 35 38 34 32 34 31 29 28 31 35 34 35 37 37 39 42 46 47 47 48 48 46 42 41 42 42 42 41 39 38 35 34 35 37 44 51 53 56 56 53 51 51 50 46 47
11 13 14 14 13 12 12 12 12 18 24 21 16 15 16 19 16 11 11 11 11 13 12 10 11 11 11 14 14 13 12 12 11 11 18 24 27 29 30 34 35 34 38 41 53 61 51 48 48 38 36 38 36 35 33 34 34 31 30 29 30 33 31 35 37 36 38 40 44 45 44 45 46 43 40 40 43 43 42 42 41 41 39 38 37 37 41 44 46 48 47 48 47 46 46 43 42
10 12 14 15 15 14 15 15 17 25 26 20 15 14 15 19 17 11 10 10 10 12 12 11 13 13 14 15 13 12 13 13 12 13 21 29 31 29 29 34 36 39 45 46 58 70 60 53 51 40 38 40 37 34 33 36 35 31 31 29 29 30 30 34 37 36 38 39 40 43 43 44 44 42 41 42 44 43 42 43 43 43 42 40 39 39 40 42 44 44 43 44 42 41 40 33 32
10 11 13 18 19 21 26 25 24 28 25 19 17 16 16 17 15 11 9 10 11 11 11 12 14 14 15 15 13 14 15 15 16 20 27 33 37 36 35 38 40 43 49 48 53 63 58 53 51 42 40 41 37 35 35 37 37 33 32 30 28 29 29 33 36 35 38 37 37 40 41 42 43 42 42 42 43 44 43 44 44 43 42 41 40 39 38 39 40 41 42 40 37 39 38 34 29
10 10 13 18 22 30 36 31 29 32 27 19 17 18 20 16 12 11 10 10 11 11 11 13 14 16 16 14 12 15 17 18 22 27 31 33 39 42 38 37 40 43 47 47 50 59 59 58 53 40 40 43 37 37 38 37 37 35 32 30 29 29 28 31 34 34 36 36 35 37 39 40 42 41 42 42 42 44 45 45 43 40 40 42 41 40 39 39 38 40 41 38 41 42 39 42 42
10 9 11 15 20 29 35 31 28 29 26 21 18 19 21 18 13 10 9 10 11 10 11 13 15 16 16 13 11 15 20 22 28 33 35 35 40 45 41 38 41 44 47 47 51 58 61 65 63 47 40 43 39 37 38 37 37 37 33 31 30 29 27 29 31 32 33 34 34 35 36 38 40 41 43 42 41 44 46 46 43 41 41 42 40 37 37 38 36 37 38 38 41 38 32 33 34
9 8 11 15 15 20 26 26 25 25 25 23 21 20 17 16 15 11 9 11 11 10 10 11 14 14 14 14 14 18 24 27 31 36 38 39 39 40 38 37 43 48 48 47 50 56 57 61 67 60 47 42 39 36 36 37 37 38 36 33 31 30 27 27 30 31 31 32 32 32 34 36 38 40 44 43 41 44 47 46 45 43 42 42 40 36 36 37 35 35 38 39 39 38 39 39 33
9 9 12 13 10 14 21 24 23 23 26 23 20 19 16 15 17 12 10 13 10 9 10 10 13 14 14 17 19 22 26 29 33 37 39 40 40 38 36 34 41 48 46 46 49 52 52 52 61 63 50 42 40 35 35 38 37 38 37 34 33 32 29 26 28 30 30 30 32 31 31 34 37 40 45 45 42 45 49 48 47 47 44 43 42 39 37 37 37 37 39 40 40 40 42 42 41
9 10 10 8 8 12 17 22 22 23 28 25 19 19 16 15 17 14 12 14 11 9 10 10 12 15 16 20 23 25 27 30 34 37 39 41 42 41 39 35 38 41 41 43 46 44 42 43 51 54 45 43 43 36 35 38 38 39 38 35 34 33 31 29 28 30 30 29 32 32 29 32 37 40 45 47 44 46 50 49 48 50 48 45 43 41 39 38 39 40 40 41 41 42 40 38 42
7 7 6 7 12 14 15 20 21 23 28 25 19 17 14 11 13 15 15 15 13 11 10 10 12 15 17 21 25 27 30 34 34 36 39 41 42 43 43 39 37 38 38 41 43 39 37 39 44 45 41 42 43 38 37 38 38 40 39 37 36 34 35 33 30 32 33 30 32 34 31 30 36 42 48 49 46 47 51 50 52 53 51 48 45 41 39 37 38 39 39 40 39 40 43 41 41
6 7 6 6 10 13 14 18 19 21 25 24 22 18 13 15 16 15 15 15 13 13 12 11 11 13 16 21 26 27 32 35 34 35 39 41 42 43 45 42 39 40 40 41 43 44 49 53 52 48 45 44 43 42 41 38 37 40 39 38 38 37 38 37 35 37 37 34 33 34 34 32 35 42 50 50 47 49 51 50 54 55 53 51 47 44 42 39 40 40 39 39 38 40 43 40 38
7 9 9 9 10 10 11 13 12 17 20 21 24 19 18 26 23 13 13 16 14 13 13 12 11 12 15 21 28 30 32 36 36 37 39 42 44 44 44 45 44 46 46 46 48 49 54 59 54 49 48 47 45 45 44 41 41 42 39 39 39 39 39 36 37 41 40 38 35 33 34 34 35 40 49 51 49 50 52 50 53 56 55 53 49 46 44 42 42 42 40 40 39 38 38 38 39
9 11 11 12 15 17 21 20 13 13 16 17 21 20 22 28 21 11 13 16 14 12 12 13 11 13 18 24 30 31 32 35 37 39 40 40 42 42 42 43 46 48 49 50 51 51 52 53 50 47 47 47 46 46 44 43 45 43 39 39 39 40 41 37 38 43 42 39 36 35 37 37 36 40 46 50 49 50 51 50 50 53 54 54 51 49 46 44 45 44 42 43 40 36 36 38 39
Wind_Speed
4 4 5 6 8 10 8 5 4 4 5 6 8 8 10 13 8 2 3 1 2 2 2 2 1 5 5 5 9 14 14 12 9 5 4 7 15 20 23 29 28 25 25 27 29 26 25 23 22 22 20 20 19 17 16 15 15 15 16 16 15 16 17 16 17 17 15 14 13 14 14 13 12 12 11 11 10 10 9 8 8 8 7 7 7 7 8 9 10 10 11 10 11 12 11 11 11
6 8 7 8 9 7 4 4 4 4 6 7 8 10 11 10 4 5 9 6 2 6 3 3 1 3 5 7 3 10 14 14 13 10 9 15 18 19 24 27 27 25 25 27 28 26 25 23 23 22 21 20 19 18 16 15 15 15 16 16 16 16 17 17 16 16 15 13 13 14 13 12 12 11 11 10 9 9 9 9 8 7 7 7 7 7 8 9 9 9 9 9 11 13 11 11 11
9 11 10 8 7 6 4 4 6 5 7 7 8 11 10 10 6 4 4 3 8 8 1 2 2 2 3 6 3 9 10 11 14 12 11 17 15 17 24 26 27 25 25 26 25 25 25 24 23 22 21 20 19 18 16 15 14 15 16 16 17 17 17 17 16 15 14 13 14 14 13 12 11 11 10 10 10 10 9 9 8 8 8 8 7 7 7 7 8 8 7 8 12 12 10 10 10
8 9 10 8 5 6 5 4 6 6 8 7 9 9 3 6 2 5 6 8 7 3 1 1 1 3 8 7 6 11 10 8 12 10 8 14 15 20 24 25 26 25 24 23 22 24 25 24 24 22 22 21 20 18 16 15 15 15 16 16 17 17 17 17 16 15 14 13 14 13 13 12 11 10 10 10 10 10 9 9 9 9 9 8 8 7 6 6 7 8 6 8 12 11 10 9 9
9 10 10 8 5 3 4 5 6 6 8 7 9 5 7 6 7 9 7 6 3 1 2 2 2 5 11 10 7 6 7 9 11 10 11 16 20 23 24 24 24 24 23 22 21 23 25 24 23 22 21 21 20 19 17 16 15 15 16 16 16 17 16 16 16 15 14 13 13 13 12 12 10 10 10 10 10 10 9 8 9 10 10 10 9 8 7 6 7 8 7 9 11 11 10 10 8
10 12 10 8 5 4 4 5 7 7 9 10 10 6 4 5 7 7 4 3 2 3 4 4 3 5 10 8 8 8 7 5 8 10 14 19 22 23 22 23 22 23 23 21 21 24 25 23 23 22 21 21 20 19 17 16 15 15 16 16 16 17 17 17 17 15 14 14 13 13 12 11 11 10 10 10 9 9 9 8 9 9 10 10 9 8 8 8 7 8 9 9 9 8 8 7 6
10 9 6 7 5 4 5 6 8 8 10 11 12 11 5 8 6 4 1 1 3 4 5 4 3 4 7 6 8 10 11 5 7 11 17 20 22 22 22 22 22 23 23 21 21 25 25 22 22 21 21 21 20 19 17 16 16 16 16 17 17 17 17 17 17 15 15 14 13 13 12 12 11 11 10 9 9 8 8 8 9 10 10 10 9 8 8 8 8 8 8 7 6 5 5 4 4
11 7 3 5 5 5 6 8 8 8 10 10 11 9 7 7 4 6 7 2 3 4 5 5 4 4 5 9 8 8 12 9 12 17 21 21 21 20 21 22 22 22 22 21 22 25 24 21 22 20 21 20 19 18 17 16 16 16 17 17 18 18 18 17 17 16 15 14 13 12 12 12 11 10 9 9 8 7 7 7 8 10 10 9 9 8 7 7 7 7 5 4 5 5 4 4 4
10 7 4 6 6 6 7 8 9 10 12 12 13 7 3 1 2 4 11 8 6 5 5 5 3 4 6 11 9 7 9 11 17 19 19 20 19 18 19 20 21 22 21 21 23 25 22 20 20 19 20 19 18 17 16 16 15 16 17 17 18 17 18 17 17 16 14 13 12 12 12 12 10 9 8 8 8 7 7 6 7 9 9 9 8 8 7 6 6 6 4 4 5 5 4 5 6
6 6 5 5 6 7 8 8 8 9 13 15 13 4 3 2 3 5 9 10 8 7 5 5 2 4 9 10 8 6 6 10 16 16 18 19 19 18 18 19 19 21 21 22 24 24 22 20 18 18 18 18 17 16 15 15 15 16 16 17 17 17 16 17 16 15 13 12 12 12 12 11 10 9 8 7 6 6 6 6 6 8 9 9 8 8 7 7 6 6 5 5 5 6 6 6 7
5 5 5 5 6 7 8 8 9 10 14 13 5 4 4 1 2 5 6 10 9 7 4 6 3 5 9 10 5 7 8 8 13 15 17 17 17 18 18 19 19 19 21 22 22 22 23 20 18 17 16 16 15 15 14 14 14 15 16 17 16 16 16 16 15 14 13 12 13 12 11 11 10 9 9 8 6 4 4 5 6 6 7 8 9 8 7 6 6 7 6 5 5 6 7 7 7
6 6 5 6 6 7 8 8 10 11 12 6 2 5 5 2 1 5 7 10 9 7 6 7 5 3 8 8 3 8 10 6 12 16 15 16 16 16 16 18 18 18 20 21 20 21 22 20 19 17 15 15 13 13 13 13 14 15 15 16 16 16 15 15 14 13 12 13 13 12 11 11 10 9 9 8 7 5 4 5 5 5 6 7 8 7 5 5 6 7 6 5 5 6 7 7 6
6 6 6 7 7 8 9 9 10 10 10 5 3 5 3 2 1 5 7 9 10 9 6 9 7 7 8 6 4 7 9 6 12 15 14 16 15 14 15 16 18 18 20 20 19 20 20 20 19 17 16 15 14 13 12 12 13 14 15 15 16 15 15 14 13 13 12 12 13 12 11 11 10 10 9 8 8 6 5 5 5 4 5 5 6 6 4 4 5 5 5 5 5 7 7 6 5
6 6 6 7 7 9 8 9 9 8 7 5 5 7 6 0 2 5 7 11 10 9 6 8 12 12 10 8 6 5 8 9 11 15 14 15 15 14 14 14 17 18 18 18 18 19 19 20 20 19 19 17 15 14 13 12 12 13 14 14 15 15 15 14 13 14 13 12 12 12 12 11 11 10 10 9 8 7 5 4 4 4 4 4 4 4 4 4 5 4 5 5 6 7 6 4 4
7 5 6 7 7 9 8 10 8 7 5 8 5 2 4 2 4 4 5 10 9 9 7 8 13 9 8 7 7 8 12 14 12 15 17 16 14 14 13 13 16 17 17 17 18 18 18 19 20 21 21 19 17 16 14 13 13 13 14 14 15 15 15 15 15 15 14 13 12 12 11 10 11 10 10 10 9 8 6 4 4 4 3 3 3 3 3 4 4 4 5 6 7 6 5 4 5
6 5 6 6 7 9 7 10 8 8 5 7 2 4 2 3 4 5 4 7 8 9 7 7 9 7 8 7 11 15 19 18 15 17 18 16 15 13 12 12 14 16 16 17 18 18 19 19 19 19 20 19 17 18 17 17 14 14 15 15 15 15 15 15 16 15 14 13 11 12 11 10 10 10 10 10 10 9 6 5 4 5 4 3 3 4 4 4 4 5 7 7 6 6 5 5 5
6 6 7 6 8 10 7 10 8 4 1 9 6 4 4 5 4 4 2 6 10 12 6 9 9 10 9 10 20 23 22 21 19 19 17 15 14 12 11 11 11 13 15 17 18 18 19 19 19 19 19 18 18 18 17 18 17 15 16 15 15 15 15 16 16 15 14 13 12 13 13 11 11 11 11 11 11 10 8 6 6 7 6 5 4 4 4 4 5 6 8 8 6 5 4 4 4
6 5 7 7 8 9 8 11 4 3 2 5 9 5 4 7 6 2 1 6 9 12 2 15 16 16 17 19 24 23 23 23 20 19 17 15 12 12 11 11 11 12 14 16 18 17 17 19 20 20 20 19 17 16 15 16 17 15 15 15 15 15 16 17 16 14 13 14 14 14 14 13 12 12 12 11 12 11 10 8 8 8 6 5 4 4 5 5 6 6 8 8 6 5 3 3 3
7 6 7 8 9 10 12 11 4 4 6 10 7 1 3 5 6 2 1 6 7 10 5 16 19 18 20 21 21 20 20 20 20 18 17 15 13 12 11 11 10 15 17 16 17 14 15 17 19 20 21 21 15 13 14 15 16 14 15 16 15 16 16 16 15 13 12 13 13 12 13 13 11 13 13 12 12 11 11 10 9 9 6 5 4 4 5 6 7 7 8 8 6 5 4 4 4
8 7 7 9 11 13 13 8 6 6 8 9 7 4 6 7 4 2 3 8 8 9 8 13 18 18 19 19 19 19 18 17 18 17 16 16 16 14 13 12 9 14 16 15 16 15 16 16 19 20 19 20 17 15 15 17 18 16 17 17 17 18 17 16 14 12 12 12 12 12 12 14 12 12 13 11 10 11 11 11 10 10 7 5 5 4 5 6 7 7 8 9 7 6 5 6 7
7 8 9 12 12 11 9 5 4 6 5 7 9 6 9 8 2 4 6 8 8 9 11 12 18 19 19 18 17 17 16 15 15 15 15 14 16 14 14 15 13 15 14 14 16 14 15 13 17 21 19 18 17 18 18 18 19 18 16 16 17 19 18 17 14 13 13 13 14 14 14 15 14 13 15 12 9 10 12 13 11 10 8 6 5 5 6 6 6 7 9 9 8 6 6 6 8
7 9 11 13 14 11 8 4 1 2 4 6 8 9 9 6 4 7 6 7 5 2 3 9 18 19 18 17 16 15 14 14 14 14 14 13 15 14 15 15 17 18 15 15 16 13 13 11 13 16 17 17 14 15 18 18 19 18 15 14 16 17 18 17 16 16 15 17 17 17 18 15 14 14 15 14 12 12 13 13 12 11 10 7 5 6 7 6 6 8 9 9 8 7 8 6 6
8 9 11 12 13 11 7 5 3 3 5 8 8 8 6 7 9 5 4 7 1 16 18 14 20 20 18 16 15 15 14 13 12 14 15 15 16 16 17 17 17 18 18 18 16 13 12 10 11 10 12 13 12 14 15 16 15 13 14 13 13 15 16 13 12 16 17 20 18 17 19 15 14 14 11 10 9 10 11 11 12 12 11 7 7 9 9 6 7 10 9 8 8 8 8 6 4
11 9 11 12 11 9 7 5 2 1 7 8 7 8 7 10 7 3 6 5 8 20 23 21 21 19 17 15 14 14 14 13 13 16 16 15 17 16 15 17 18 19 21 19 16 13 10 9 9 8 9 10 12 15 14 15 12 9 11 10 11 13 13 9 6 11 16 21 16 14 16 14 16 14 9 7 7 11 10 9 12 13 10 9 10 11 10 7 7 10 9 8 8 8 7 6 5
10 9 12 12 8 6 7 6 5 6 8 7 7 9 10 9 3 3 6 5 9 16 18 16 17 17 17 16 14 13 13 13 13 15 15 16 18 18 16 18 20 21 22 19 16 14 11 10 8 7 8 7 12 12 8 11 12 12 11 9 10 10 8 8 7 7 10 14 13 13 13 12 13 10 9 8 7 13 14 11 13 12 11 12 11 10 9 8 5 7 7 7 7 7 8 8 6
7 10 12 13 9 6 7 8 9 9 8 6 9 11 10 5 2 3 3 6 7 12 14 12 15 16 15 15 14 13 13 13 15 15 16 17 17 17 19 19 19 22 23 19 17 16 13 12 10 8 7 5 9 9 6 6 7 10 10 9 9 5 4 6 6 5 6 7 9 10 9 9 9 7 6 6 7 11 15 16 14 11 12 14 13 10 9 8 6 6 6 6 5 6 8 9 7
6 9 12 13 10 6 8 11 9 8 8 7 9 12 8 4 4 3 3 4 8 10 13 13 15 15 14 14 12 12 13 12 13 15 13 14 16 17 19 19 17 19 21 17 16 16 15 13 11 9 8 6 6 6 9 7 4 7 6 5 5 4 3 6 6 6 6 7 8 9 9 8 8 8 6 8 11 11 11 16 13 11 13 13 13 10 9 9 6 6 5 5 4 3 5 7 6
7 7 9 10 9 9 11 11 7 8 9 7 11 11 4 5 7 6 6 7 10 11 14 15 17 16 14 15 12 8 10 11 14 15 11 11 18 21 18 20 20 18 18 15 14 17 15 12 12 10 9 9 4 3 7 7 3 4 2 2 3 2 4 6 8 6 4 7 8 9 10 8 7 8 7 10 14 9 6 10 8 9 12 14 13 11 11 9 5 3 2 3 5 3 4 5 4
7 7 8 10 11 12 13 11 8 9 8 8 12 10 5 7 7 9 10 8 10 12 12 13 14 16 15 13 10 4 7 12 12 11 11 13 17 17 16 17 21 20 16 16 16 15 13 12 13 10 8 9 4 4 4 4 3 1 2 2 3 6 4 3 6 6 2 6 7 8 8 7 7 6 6 8 10 7 5 6 6 5 9 14 15 12 11 10 8 7 6 5 4 4 4 4 2
8 9 9 10 10 11 14 13 11 12 9 10 10 7 6 9 6 9 9 8 9 8 9 9 9 14 15 14 12 7 10 10 8 8 11 15 14 16 16 15 20 20 16 19 18 14 12 13 14 11 9 9 5 4 3 4 4 2 2 2 5 7 4 1 2 4 3 6 6 7 6 6 7 4 4 4 4 5 4 3 5 2 6 13 13 11 12 12 12 11 10 7 4 4 3 1 2
8 10 8 7 8 10 13 12 12 12 8 10 8 7 5 7 10 9 6 8 8 6 8 9 6 7 8 11 15 13 11 10 15 15 13 14 15 16 16 15 20 20 18 21 18 15 15 15 14 12 11 11 7 6 5 4 3 3 3 3 5 7 3 2 2 2 5 6 6 7 5 5 7 5 4 2 1 2 5 3 4 2 5 11 11 10 11 13 13 11 10 9 6 5 5 2 3
7 7 7 7 9 8 11 12 12 10 8 9 8 7 6 7 11 10 6 8 9 7 9 8 7 8 7 7 12 11 10 14 20 19 13 12 15 17 15 14 20 22 21 23 20 17 16 16 15 13 12 12 9 8 7 6 5 3 4 4 4 4 3 2 3 3 2 4 5 6 6 5 6 6 5 4 2 2 6 6 4 5 8 12 11 9 10 12 13 12 12 12 10 8 6 4 4
7 6 7 7 9 5 9 10 12 10 9 12 11 8 7 7 11 10 6 8 9 8 8 9 11 10 9 8 6 6 8 13 17 18 18 17 17 17 17 15 17 23 24 24 23 18 18 17 15 14 12 11 10 9 8 6 6 4 3 3 2 3 3 1 2 4 6 6 4 7 8 7 7 6 5 6 4 2 6 8 6 6 8 12 13 11 11 11 12 14 13 13 12 10 8 5 6
6 7 6 8 10 5 8 10 11 11 11 10 11 11 7 7 11 9 8 7 8 8 9 9 15 13 10 6 7 6 3 3 6 14 18 18 19 18 20 18 17 23 24 23 23 19 18 17 15 15 13 12 11 10 8 7 7 4 4 4 3 3 3 2 4 6 7 8 6 7 7 7 8 6 6 6 4 3 4 7 7 6 6 10 13 12 10 10 12 13 11 13 13 10 9 7 7
3 5 6 7 10 7 7 7 10 10 11 8 9 11 9 9 10 10 8 6 9 8 9 5 13 17 11 8 9 4 3 4 4 8 15 15 19 20 20 20 17 24 24 22 22 19 19 17 15 16 14 14 12 11 9 6 7 4 4 4 2 3 4 3 5 6 6 7 6 6 5 6 7 5 6 6 4 4 6 8 6 6 6 8 11 10 9 10 12 13 12 12 13 10 8 8 9
11 10 6 7 7 6 7 3 8 9 9 10 9 10 11 8 10 10 8 6 9 8 7 4 7 15 14 10 11 10 9 5 10 15 19 17 19 21 22 20 17 23 24 22 21 18 19 18 16 17 15 15 13 11 10 7 7 5 4 6 4 5 7 7 6 5 5 5 5 5 5 5 6 5 6 6 4 4 6 7 6 6 6 7 10 9 9 9 12 14 13 11 10 7 7 7 10
12 12 5 6 7 6 7 4 9 5 5 8 9 11 12 8 9 9 10 11 8 7 7 5 6 8 13 14 17 18 15 14 17 20 22 21 21 21 23 21 18 23 24 23 22 19 20 19 17 17 15 15 14 12 11 9 9 7 4 7 7 5 4 6 6 6 6 6 5 6 7 6 6 6 6 5 5 7 7 5 6 7 6 7 9 10 10 9 10 10 11 9 7 6 7 7 9
9 10 7 4 6 6 5 4 10 7 3 5 8 12 11 9 12 9 8 7 4 5 9 5 8 7 8 10 16 19 13 13 16 14 17 21 22 22 24 24 21 23 25 25 24 21 20 19 18 18 16 15 13 12 10 8 8 7 5 6 8 6 6 9 9 6 6 6 6 6 8 7 7 6 6 5 4 6 6 4 4 5 5 6 7 9 10 8 8 7 8 9 8 8 7 7 9
8 7 6 5 7 5 2 5 6 8 4 6 9 11 10 10 12 8 4 6 4 6 10 8 9 8 7 7 10 16 12 13 15 12 15 20 22 24 24 25 25 24 25 26 24 22 21 21 19 18 17 15 13 12 10 8 8 6 5 6 9 10 12 14 12 8 7 7 8 7 8 7 7 7 6 5 4 4 3 3 4 3 3 4 5 7 9 8 7 8 8 9 9 9 7 5 9
7 6 6 6 7 8 1 5 2 3 3 5 9 8 9 7 7 7 8 10 7 8 12 12 9 7 8 8 7 16 15 14 14 12 14 16 20 25 22 21 24 23 22 25 25 23 22 21 19 18 17 16 15 13 12 11 9 8 9 11 12 14 12 11 11 9 8 9 9 9 9 8 8 8 8 7 6 5 4 4 4 3 3 2 3 4 6 6 6 7 7 8 9 7 6 6 8
7 8 9 9 8 9 5 4 3 4 3 5 10 7 6 7 6 7 12 11 8 9 14 10 7 7 7 6 4 14 16 14 13 12 12 12 14 22 23 19 21 23 22 24 26 25 24 21 20 19 19 19 18 15 14 13 12 11 11 11 12 13 11 10 11 9 8 9 10 9 9 9 9 9 9 9 8 6 6 6 5 4 4 3 3 5 6 7 6 6 6 7 7 6 6 7 8
8 9 11 12 12 11 7 2 5 3 5 6 7 7 6 8 10 11 12 8 9 11 11 8 8 9 8 7 5 9 15 16 14 13 12 10 11 18 25 23 21 22 23 25 24 23 25 22 21 22 21 21 20 17 16 16 14 13 13 12 12 14 13 13 12 10 10 11 11 10 9 10 10 10 10 10 9 8 7 7 6 7 7 6 6 6 7 6 5 6 6 6 4 4 5 4 4
6 4 6 11 12 12 9 4 3 4 6 6 8 7 6 7 9 12 13 12 12 10 9 9 10 10 9 8 5 5 9 13 13 12 9 7 9 14 20 24 26 25 23 25 26 24 27 25 24 24 21 22 22 18 18 18 17 15 15 15 15 16 15 14 13 12 12 12 11 10 10 10 10 11 10 10 10 9 9 9 9 9 7 6 8 9 8 5 4 5 5 4 4 4 3 5 4
4 2 6 10 9 11 11 8 6 6 6 5 8 8 7 6 8 9 10 11 12 10 10 10 10 11 11 8 7 7 7 11 12 11 11 10 13 16 18 22 27 29 26 28 29 26 29 27 25 23 20 24 25 21 21 20 18 17 16 16 15 16 17 16 15 14 13 12 12 11 11 10 10 10 10 11 11 10 10 10 10 10 8 9 9 9 8 10 9 8 7 6 8 9 7 6 8
5 3 7 9 9 11 11 8 8 7 7 6 7 9 7 5 8 9 8 9 9 9 10 10 10 10 10 9 10 10 8 9 8 8 12 15 17 20 22 22 26 26 23 26 29 30 31 27 26 25 21 25 27 23 23 21 19 19 16 15 15 17 19 17 16 15 14 13 13 13 12 11 10 10 11 11 11 11 11 11 11 12 13 13 12 10 9 11 11 9 8 9 10 10 10 10 10
5 5 6 8 9 11 9 8 7 6 7 8 8 9 6 6 7 7 8 9 8 8 8 9 8 7 3 2 1 1 2 2 1 2 7 13 18 23 24 23 27 28 21 20 22 27 34 29 28 29 24 27 29 25 24 22 20 20 18 16 18 20 19 18 18 16 15 14 13 14 13 12 11 11 11 11 11 11 11 11 11 11 12 13 12 11 11 10 11 11 10 10 11 10 10 10 12
4 3 6 8 9 9 8 7 6 6 7 9 12 12 8 7 6 6 6 5 7 7 8 8 6 3 1 3 3 3 4 4 4 3 1 5 12 20 23 20 24 26 22 22 17 15 30 33 31 32 26 28 31 27 25 23 22 21 18 17 20 21 20 20 20 17 15 15 14 14 14 13 12 11 11 10 10 10 11 11 11 11 11 12 11 11 11 11 11 11 11 12 12 12 11 10 12
5 4 6 7 6 7 6 5 5 6 7 8 11 13 11 8 5 5 4 6 7 6 7 7 8 6 3 4 2 1 2 4 4 5 6 6 3 6 14 18 22 23 25 31 25 17 27 33 34 32 28 29 31 29 27 24 23 22 18 18 21 21 21 22 21 18 17 16 15 16 16 15 14 12 10 10 9 9 10 11 10 10 11 11 10 10 11 10 10 11 11 12 12 12 11 11 11
6 6 6 6 5 4 5 5 5 6 7 6 6 8 9 7 6 6 1 8 8 4 4 8 9 8 7 6 3 3 3 3 3 5 7 7 6 3 7 15 23 24 26 35 35 32 34 35 37 34 29 32 33 29 29 26 24 23 20 20 22 22 21 21 21 19 18 17 16 17 18 17 15 14 12 11 10 9 9 10 9 9 10 10 10 10 11 10 10 11 11 11 12 12 12 12 12
6 6 6 6 5 5 6 6 6 6 6 6 5 5 5 5 6 7 4 7 8 6 7 8 8 7 7 5 4 5 4 5 6 6 6 5 4 5 6 9 20 26 25 27 29 33 33 28 34 36 31 33 33 29 28 25 24 23 21 21 22 23 22 21 21 20 18 18 17 17 17 17 17 16 14 13 11 9 9 9 8 9 9 10 10 9 9 9 10 11 10 10 11 10 10 11 11
7 6 6 6 4 5 6 5 5 5 4 6 6 3 3 3 2 3 5 7 7 6 7 7 7 7 6 5 3 5 6 7 6 5 5 4 4 6 10 5 13 23 20 17 19 23 21 15 20 28 31 33 31 29 28 25 23 23 21 21 22 23 23 21 21 20 19 19 17 16 16 17 17 16 16 14 12 11 10 9 9 9 10 9 9 9 9 9 9 9 9 9 9 8 9 10 9
4 4 6 6 4 5 5 5 6 5 4 5 5 4 3 0 2 1 6 9 7 6 7 8 8 7 7 5 4 5 7 7 6 6 6 5 5 4 9 10 9 20 19 19 19 20 21 18 16 16 23 31 30 28 27 23 22 22 21 22 22 22 22 21 21 21 19 19 18 17 15 16 17 16 17 16 14 13 12 11 10 10 10 10 10 9 9 9 8 8 9 8 8 8 8 8 7
1 3 5 4 4 5 5 6 6 5 6 5 4 5 5 2 3 5 7 8 9 8 9 9 9 8 6 5 4 6 7 7 7 7 7 6 7 6 6 8 10 18 20 19 20 22 25 26 23 18 18 26 27 27 27 23 21 20 19 20 21 21 21 20 20 21 20 18 19 19 15 15 17 17 17 16 14 14 13 12 11 11 10 10 10 9 9 9 8 8 8 8 7 7 7 6 6
4 4 2 2 5 6 5 5 5 5 6 5 4 7 8 6 5 7 9 9 9 9 9 10 10 8 6 5 5 7 8 7 8 8 7 7 7 9 8 6 9 14 16 16 17 21 23 22 25 26 23 23 24 25 26 23 20 18 18 18 18 18 19 19 17 19 20 17 16 18 16 14 15 17 17 15 14 14 13 12 12 12 11 10 10 10 9 10 9 8 8 8 8 7 6 6 6
9 8 6 4 4 5 4 4 5 5 6 5 7 9 8 6 3 7 11 10 9 10 11 11 11 10 7 7 7 8 8 7 8 8 7 7 6 9 11 8 7 8 11 12 10 14 18 18 20 25 23 20 20 20 21 20 17 16 16 15 16 15 15 16 14 15 19 19 15 15 15 14 14 15 17 16 14 14 14 13 12 12 12 11 10 10 10 10 9 9 9 8 8 8 7 7 6
11 9 8 6 4 5 5 4 4 5 6 5 7 8 5 3 2 4 9 9 9 9 8 8 9 10 8 8 7 7 7 6 7 8 8 7 7 9 11 11 9 8 9 11 5 4 8 12 16 20 19 17 17 15 16 17 15 14 15 14 14 13 12 13 10 9 16 18 15 13 13 15 14 15 16 15 14 15 14 13 13 12 13 12 11 11 11 10 10 10 10 9 8 8 8 8 7
7 7 7 6 5 5 6 5 5 6 6 4 6 6 2 1 2 2 6 8 9 7 6 6 7 8 8 9 7 7 7 6 7 8 9 8 8 10 10 10 11 11 12 11 5 4 8 10 13 17 17 18 17 12 12 15 12 10 12 12 12 11 10 12 9 7 12 15 13 11 10 12 14 14 16 16 14 15 15 14 14 14 14 14 14 14 13 11 11 10 10 10 9 9 8 9 8
6 5 5 5 5 4 5 7 6 6 6 5 6 6 1 1 1 1 3 5 5 7 8 7 6 8 9 9 8 7 7 7 8 9 9 9 9 11 11 9 9 10 12 12 10 5 6 10 15 17 18 17 14 11 12 12 10 10 10 11 13 13 10 12 12 8 10 13 14 12 9 10 13 12 15 17 14 14 15 14 14 14 15 15 15 15 14 13 12 12 11 11 10 10 9 10 10
Wind_Direction
264 283 288 279 270 274 266 241 242 210 219 254 253 261 255 255 278 277 193 204 281 249 49 48 331 337 317 345 68 68 39 36 34 44 104 114 112 113 121 120 122 128 129 139 145 146 149 149 148 145 144 143 141 140 143 148 155 162 164 166 164 161 162 159 155 150 144 135 135 140 138 135 132 129 128 124 120 118 112 112 112 108 106 105 102 100 101 103 101 96 92 88 93 93 90 95 94
269 272 261 259 258 262 259 214 251 246 223 246 244 246 250 249 282 284 262 265 67 84 42 39 24 346 354 325 46 83 53 51 69 85 103 113 116 120 125 123 124 127 131 139 143 147 150 150 149 146 146 143 140 140 142 147 154 160 162 163 162 162 164 162 157 153 148 138 137 142 143 140 135 131 128 122 115 111 108 105 102 104 107 105 103 98 96 101 102 95 92 95 97 94 90 97 97
268 275 257 243 237 237 268 241 242 259 246 253 254 239 233 236 224 239 258 5 54 74 342 34 28 341 19 302 339 71 68 62 79 93 109 119 123 125 126 123 124 127 130 135 140 147 151 151 150 147 146 142 140 140 140 145 150 155 158 160 160 162 165 165 160 155 149 140 141 144 145 144 138 133 127 119 111 106 104 104 103 102 104 106 105 102 96 97 102 95 98 107 102 95 91 93 94
261 272 264 251 239 223 246 250 235 253 257 256 268 255 223 248 274 42 54 53 38 56 280 34 106 48 34 357 25 72 83 75 84 97 117 121 124 125 125 122 123 126 128 133 136 146 152 152 150 148 145 142 141 140 141 144 146 151 154 157 160 163 165 165 162 157 150 144 145 147 146 145 142 136 128 120 113 107 105 106 106 105 106 110 109 109 106 103 104 102 107 104 98 95 92 89 87
256 263 258 252 259 244 244 251 242 245 252 258 270 292 34 354 359 32 54 51 1 313 276 193 153 89 66 29 24 61 70 85 94 102 112 113 120 122 124 124 125 125 128 133 136 147 153 152 150 148 145 143 142 141 143 145 146 150 153 155 158 162 164 164 161 157 151 149 150 151 149 146 142 136 130 124 117 110 105 106 108 111 113 114 115 117 115 114 110 109 113 101 96 97 95 94 90
253 257 239 240 270 306 278 252 247 244 242 253 263 277 29 37 19 19 49 36 293 260 261 204 167 98 89 57 49 48 32 81 100 101 113 117 123 124 125 125 125 125 127 131 137 150 153 152 150 147 146 144 144 144 145 147 149 152 153 154 156 158 160 161 159 157 154 154 155 153 150 147 143 138 132 125 120 115 112 106 103 112 117 116 120 125 125 124 116 116 121 111 107 105 98 97 99
251 258 222 225 252 264 258 249 250 254 244 243 255 276 352 69 60 332 284 157 231 219 229 221 169 114 108 98 74 54 37 58 97 103 117 123 128 126 125 124 122 123 127 130 137 150 153 152 150 148 148 146 146 146 148 150 150 153 153 153 155 157 158 159 158 157 157 158 159 157 154 150 145 140 135 127 121 118 118 110 101 109 121 122 123 130 133 134 127 126 129 122 121 113 99 94 102
249 263 233 234 243 225 235 251 252 258 260 256 264 287 21 49 42 317 307 307 237 208 197 215 178 155 117 100 88 61 52 70 100 111 120 125 130 127 123 122 122 124 126 129 138 148 151 151 151 150 149 149 149 148 151 151 152 154 154 154 155 156 157 159 159 158 159 161 162 159 156 153 150 147 139 130 126 123 117 111 104 108 121 125 123 131 135 137 138 139 137 126 123 116 107 100 105
241 244 246 253 249 246 242 250 248 250 260 259 262 259 93 315 289 285 291 288 255 236 199 204 174 155 125 96 89 72 62 88 107 117 124 125 128 125 124 122 122 124 125 130 140 146 148 152 151 151 151 151 151 151 154 153 154 155 155 156 155 156 157 159 159 158 159 162 163 161 160 159 160 156 145 137 134 131 120 113 108 108 117 121 122 129 133 135 134 133 134 123 116 119 113 98 102
231 226 243 260 248 259 252 251 254 244 249 248 251 268 63 326 290 261 273 278 267 258 207 159 139 172 139 105 91 88 83 106 115 121 124 125 126 124 125 124 122 124 126 132 140 145 147 152 152 153 154 153 155 156 158 157 158 159 159 157 155 156 156 158 157 157 158 162 166 164 166 167 169 166 155 148 143 137 130 122 114 113 116 118 120 124 131 136 129 118 119 122 113 117 113 97 96
236 222 233 262 254 257 255 256 257 246 244 238 234 309 292 198 269 279 278 279 278 274 226 136 161 203 136 105 90 107 115 127 125 125 125 126 125 126 127 125 125 124 128 134 140 146 148 150 152 154 156 157 159 161 162 163 164 163 163 160 158 158 157 158 157 157 160 165 169 170 171 172 175 173 165 158 153 150 144 135 125 120 117 119 125 128 135 138 132 123 120 124 114 114 112 102 91
247 235 220 242 254 255 263 266 261 265 265 244 74 337 282 152 132 284 280 276 272 259 216 157 164 175 117 105 105 117 126 147 132 127 126 123 122 126 127 126 128 127 132 137 140 147 148 150 154 156 159 160 162 166 169 171 171 169 167 164 161 161 160 159 159 161 164 168 169 170 172 175 182 180 174 168 163 170 166 149 140 130 120 124 130 131 137 134 137 135 129 132 126 124 117 112 91
244 252 240 244 254 260 269 270 271 284 290 301 76 82 86 118 28 312 305 291 279 268 223 164 138 109 110 112 114 128 138 154 132 129 129 124 122 121 125 128 129 128 134 139 140 146 150 153 157 160 164 166 168 174 177 178 178 175 172 170 166 164 164 163 161 164 169 172 170 170 174 177 184 188 182 176 174 180 178 157 147 150 133 128 130 127 133 134 148 149 138 141 136 133 126 121 93
241 251 260 265 267 269 272 268 280 291 299 25 81 114 99 245 307 323 307 291 280 278 263 146 120 105 117 122 120 142 137 142 135 128 126 125 123 121 126 128 130 131 134 142 141 149 158 159 163 165 165 168 173 179 182 182 184 183 177 174 172 168 167 167 167 171 172 174 176 175 177 179 180 185 184 182 185 184 182 165 152 172 157 132 130 128 140 149 167 169 147 149 144 141 135 132 107
243 255 261 268 273 272 270 266 272 270 272 63 46 37 79 262 276 280 270 278 280 287 291 118 114 113 140 151 144 157 142 146 149 129 122 124 125 124 129 129 132 135 137 144 145 153 162 165 169 168 166 167 175 181 183 183 182 187 183 178 177 173 171 172 176 180 175 175 182 182 181 180 175 175 182 186 188 191 186 167 165 190 184 151 149 147 155 166 184 180 157 153 151 148 138 126 109
242 268 265 261 265 261 263 269 260 255 257 93 37 336 33 264 266 267 260 273 278 279 269 118 110 122 153 175 144 143 143 147 146 127 121 125 127 125 130 131 135 140 141 142 145 157 163 169 174 173 170 166 175 179 181 182 179 188 188 183 180 177 176 177 182 184 179 175 178 183 181 175 170 167 178 188 188 194 189 174 188 199 200 184 174 173 170 175 187 181 169 159 155 152 130 118 108
238 248 260 258 254 257 258 262 265 275 249 109 103 44 356 310 297 271 256 265 271 271 252 102 85 90 107 136 133 134 140 143 139 130 127 131 133 133 136 136 142 139 133 136 147 158 161 167 171 174 174 169 177 179 180 180 177 188 192 187 181 178 182 185 189 187 180 177 180 186 177 169 172 168 174 185 185 187 188 189 198 201 206 196 185 185 180 182 189 187 179 167 159 157 132 119 113
241 231 243 254 249 256 253 252 281 33 273 61 68 60 324 297 298 296 204 251 259 273 265 88 80 82 90 111 124 131 136 138 144 144 141 142 144 149 146 145 152 130 122 142 150 153 154 160 167 169 171 172 180 182 186 183 175 185 192 188 182 180 190 193 192 187 181 180 188 191 177 169 171 171 174 181 180 181 186 196 204 205 207 199 197 193 187 191 195 197 190 180 173 167 156 149 138
234 242 235 245 251 258 260 265 350 27 319 353 20 30 302 290 301 323 269 263 247 253 196 107 96 96 98 107 116 125 132 142 155 155 148 151 154 157 151 146 152 129 131 151 149 152 155 160 166 159 158 163 166 165 176 179 174 184 193 194 186 185 196 201 196 189 185 185 194 199 183 175 179 178 180 184 180 180 186 190 201 208 208 205 208 203 199 197 197 207 201 194 190 182 185 185 178
221 241 246 243 246 259 272 301 355 322 316 326 315 334 307 277 284 307 266 265 244 236 204 133 117 114 108 113 123 131 141 155 161 156 154 160 157 158 153 148 151 135 140 150 145 158 165 167 170 157 148 152 146 140 152 167 174 184 193 201 197 194 199 200 199 192 183 185 192 200 192 182 189 192 190 194 183 181 187 183 192 206 208 207 207 208 207 203 200 207 205 201 196 187 192 202 204
216 224 244 252 257 276 296 342 347 299 318 312 308 317 288 280 310 286 265 260 241 226 221 175 131 124 122 124 135 141 150 158 158 160 163 162 156 158 154 149 152 147 142 139 134 141 147 146 154 152 144 145 148 146 150 161 173 183 192 204 205 207 210 201 198 196 190 199 195 190 195 190 192 198 196 198 189 183 184 179 187 201 205 203 204 212 209 208 206 205 206 199 190 180 187 210 211
230 234 244 263 280 296 314 342 19 352 339 301 287 274 285 312 282 252 249 256 258 357 277 170 134 128 132 133 140 145 153 157 161 170 172 165 157 156 153 148 148 148 139 132 129 125 132 126 131 141 139 139 146 153 156 159 166 177 186 203 211 216 220 210 202 203 206 216 208 188 192 195 192 195 195 193 188 188 187 179 184 196 202 203 199 218 228 219 204 208 213 198 186 184 195 220 213
238 248 249 261 274 277 296 332 52 58 291 267 260 270 307 294 262 232 226 249 85 54 46 85 117 126 130 137 146 147 157 165 172 178 175 167 158 159 158 152 150 141 130 135 137 134 141 136 130 135 135 130 135 148 157 163 168 178 185 199 218 223 223 217 206 210 211 211 209 191 190 193 187 192 196 192 184 192 197 182 185 196 200 207 196 213 236 224 202 212 209 197 193 187 190 204 193
232 251 257 257 263 264 273 298 332 254 260 259 264 280 279 263 258 172 208 228 95 79 73 84 103 121 131 141 148 149 165 175 181 177 170 166 160 160 157 152 152 136 129 139 144 146 148 139 138 136 131 123 136 150 155 169 177 184 194 205 220 227 231 235 223 211 201 195 195 190 194 191 183 188 193 195 191 196 202 185 190 199 193 200 204 210 219 203 207 219 200 192 194 177 175 177 174
224 244 265 269 270 272 272 278 277 257 253 251 256 263 254 254 261 198 198 154 114 104 105 108 116 130 137 146 153 159 172 172 176 172 164 166 157 154 163 163 154 137 136 147 148 154 156 146 148 135 132 125 141 156 165 179 182 177 192 213 218 228 241 251 259 226 193 186 183 184 197 193 185 196 196 186 179 187 188 173 183 198 185 185 198 205 195 172 191 215 194 190 187 174 178 176 175
230 241 251 258 252 246 258 256 245 242 244 233 241 249 242 238 246 222 146 129 153 133 131 137 136 140 144 151 157 164 173 172 172 168 166 163 147 158 174 163 148 141 144 151 154 160 158 151 151 141 148 150 146 163 175 175 183 181 192 213 218 228 226 237 265 242 205 200 192 186 193 190 187 202 196 164 166 190 179 157 158 179 180 177 184 189 175 160 174 198 193 189 186 187 184 182 184
255 256 248 253 260 256 252 249 234 228 236 227 240 245 224 198 224 223 123 154 198 167 142 143 152 153 150 154 161 170 171 175 168 157 166 157 147 173 176 152 148 148 142 147 152 147 145 148 148 150 159 160 149 165 166 154 174 205 221 252 263 312 292 258 261 239 220 216 212 207 203 198 190 184 180 162 176 201 172 147 144 158 170 170 170 168 159 161 179 196 197 183 182 189 167 175 192
260 272 266 262 266 262 255 251 235 235 232 215 245 248 186 187 216 192 179 193 208 188 146 154 174 152 145 161 164 174 166 172 172 159 168 164 164 178 165 147 149 142 138 145 141 134 144 150 144 149 159 164 149 97 150 149 158 203 247 285 263 337 354 309 274 257 222 193 192 201 208 210 197 183 183 167 168 182 154 140 140 148 164 165 159 152 143 143 151 172 193 177 185 184 126 140 177
259 258 265 260 251 243 242 238 223 239 225 192 240 251 181 214 213 159 175 201 206 190 158 175 182 141 147 166 143 164 188 176 170 156 165 170 169 162 141 138 137 135 144 142 131 138 152 145 139 143 144 158 147 64 105 117 112 130 24 81 134 127 96 339 281 275 226 170 175 184 195 197 191 188 191 171 158 164 163 153 149 148 165 162 156 153 146 139 136 123 110 117 152 169 122 117 133
254 241 248 255 252 232 220 219 214 230 215 177 225 251 197 209 182 138 163 202 206 181 158 188 185 144 156 158 134 175 203 174 144 145 170 168 158 140 134 136 131 135 141 129 131 150 154 138 139 144 137 144 132 90 96 75 89 79 27 89 71 78 98 27 280 252 182 149 158 159 163 179 184 185 172 155 143 162 194 175 148 158 176 164 155 153 154 153 150 134 126 123 119 163 170 182 338
244 237 241 239 261 239 199 193 206 218 186 159 217 255 224 191 150 145 176 204 214 189 170 191 179 125 129 146 151 175 193 166 153 166 175 159 145 139 145 144 134 139 137 131 145 159 152 142 140 140 140 141 123 112 118 79 93 88 38 54 40 41 60 27 56 179 180 157 152 136 137 182 188 181 160 132 120 212 248 230 140 173 188 168 157 150 153 154 150 138 138 152 155 166 174 203 274
231 234 232 218 251 240 167 169 198 205 163 160 225 256 242 202 148 148 196 215 219 208 189 183 147 104 90 144 159 165 177 170 162 167 169 152 145 143 152 155 139 141 141 140 154 161 151 146 143 136 131 133 128 123 124 99 102 101 44 49 24 37 78 31 56 82 114 140 164 146 132 151 162 173 176 157 148 232 249 226 168 186 182 166 159 148 147 147 148 142 140 155 169 169 158 163 220
214 231 238 227 243 203 143 175 191 200 190 179 211 248 248 195 149 146 184 220 221 220 209 170 137 135 155 168 143 119 154 170 161 163 170 161 155 149 154 168 151 143 146 149 158 160 150 148 144 138 130 129 129 124 125 116 107 103 94 95 24 45 75 37 96 81 69 84 132 149 141 148 151 166 170 150 141 191 235 219 187 188 182 171 163 144 139 145 158 161 151 154 166 169 164 170 208
199 218 233 241 245 194 151 179 179 204 220 192 194 237 254 125 131 162 173 223 228 221 234 179 141 152 171 140 93 68 77 162 152 159 169 161 158 157 158 176 165 147 151 154 158 158 150 149 142 139 138 132 129 127 127 125 120 105 99 106 48 67 76 38 94 91 82 77 89 124 135 151 153 162 165 150 134 129 185 197 180 178 184 174 162 148 147 150 159 166 156 155 163 168 178 187 206
310 255 222 239 246 216 199 182 166 197 220 214 199 224 235 137 150 192 172 239 252 223 244 215 150 150 146 103 99 103 66 23 309 177 172 165 160 159 163 185 172 150 156 155 157 159 148 149 144 140 140 133 132 131 128 123 125 111 99 123 85 88 95 53 74 87 87 76 74 99 109 122 128 138 147 139 130 125 161 179 174 173 179 175 164 154 155 154 159 165 155 154 159 165 187 194 198
334 301 237 237 255 230 241 185 147 186 202 213 220 222 227 188 177 187 164 212 244 237 239 236 176 148 142 141 139 156 142 150 245 204 178 174 166 161 165 186 176 154 159 155 158 161 148 150 146 141 142 138 136 133 136 143 140 137 133 131 91 71 83 70 64 65 77 80 73 83 91 105 104 105 115 117 133 142 158 176 185 185 180 185 182 168 161 162 168 170 163 158 153 162 200 201 195
323 311 273 231 242 223 234 179 144 186 224 209 232 237 227 224 213 187 174 195 202 241 246 221 230 172 160 171 155 158 159 170 206 194 177 170 166 168 166 180 179 159 161 159 163 165 152 154 147 143 146 139 143 148 153 160 150 147 142 122 108 98 108 107 94 71 71 73 62 63 69 78 83 90 100 109 145 151 150 165 178 180 176 190 196 186 185 179 172 175 173 174 175 196 229 228 207
312 311 311 275 250 223 219 169 143 154 242 241 254 255 229 222 241 222 182 199 190 243 261 240 236 225 197 189 153 152 161 171 183 180 179 172 169 175 170 178 183 165 163 163 168 169 157 157 151 146 151 146 150 157 157 153 141 142 146 135 133 132 120 121 115 89 81 75 59 60 65 66 70 79 91 100 133 149 150 145 137 158 176 195 206 199 203 195 178 187 185 187 201 214 236 240 211
294 288 287 286 275 252 88 75 134 150 174 251 257 258 240 208 230 254 207 210 206 223 259 259 238 239 236 226 157 151 160 168 172 176 182 176 175 177 170 179 184 170 167 166 171 174 163 158 154 149 152 154 157 154 147 137 124 124 122 111 113 106 90 95 100 91 93 92 81 78 78 75 72 73 82 95 99 104 119 120 113 128 155 180 200 196 206 203 188 200 196 195 206 216 237 230 205
270 276 267 262 260 254 171 109 202 216 162 249 269 273 276 243 222 268 249 216 192 205 241 251 241 234 234 240 165 152 159 163 172 180 180 176 180 176 168 177 180 173 171 169 174 177 166 159 158 158 158 159 160 152 145 138 126 116 105 96 100 103 95 93 100 98 95 93 90 87 83 81 78 72 68 80 87 76 61 62 90 108 111 142 168 168 194 198 189 200 202 206 210 213 225 211 209
248 245 253 262 259 262 268 136 151 278 230 243 277 282 282 262 214 238 248 216 181 215 232 236 246 243 239 248 161 150 157 163 175 181 183 180 173 169 170 178 181 184 185 177 180 178 166 161 162 165 166 165 164 155 149 145 137 128 117 107 104 108 116 121 117 113 111 104 98 92 86 83 83 79 74 80 87 85 78 64 76 105 104 116 132 140 163 170 175 191 197 207 212 214 213 206 210
252 232 236 259 273 283 294 120 130 245 248 218 244 262 253 235 211 221 245 216 187 225 229 216 238 247 243 235 196 164 155 161 178 181 184 182 162 165 176 185 190 196 193 184 189 182 165 165 170 170 166 164 165 160 156 152 145 142 136 132 131 136 147 145 135 130 124 114 104 98 93 86 86 87 85 88 91 92 87 66 68 84 76 69 74 90 120 141 168 178 179 187 190 205 208 198 213
263 266 259 256 266 282 278 238 188 229 249 209 201 235 256 239 224 221 228 209 190 215 230 219 228 233 240 237 218 194 152 155 176 178 171 178 181 179 181 189 198 205 197 186 196 188 166 166 174 174 169 163 165 163 160 156 152 154 154 152 156 157 150 137 131 128 119 115 111 106 101 94 91 89 88 90 91 91 83 64 65 76 76 72 67 70 79 74 85 109 118 140 116 98 151 155 158
251 340 291 264 252 262 260 245 238 244 262 237 196 226 260 258 260 257 237 207 182 199 228 230 227 212 212 223 221 219 187 178 184 172 167 185 202 201 190 186 193 203 198 187 194 185 168 169 173 178 177 164 165 167 163 160 157 161 163 164 165 152 136 128 129 126 122 125 123 117 110 103 98 93 90 89 86 85 83 75 69 68 77 89 81 73 70 63 70 80 75 85 89 77 81 114 137
241 248 266 268 259 255 255 246 239 244 260 251 210 222 247 249 258 267 246 215 192 204 219 222 234 223 199 198 209 211 201 197 186 160 167 184 196 199 197 191 193 206 200 184 189 181 171 173 173 180 183 166 166 170 165 163 162 164 168 168 156 136 131 135 135 131 132 136 132 127 120 109 104 98 92 89 85 84 82 78 71 65 70 81 83 81 79 76 80 85 79 77 82 82 77 82 97
247 283 281 277 272 263 261 257 250 246 250 255 242 228 233 247 247 243 226 209 201 215 213 201 222 253 236 162 214 279 314 286 246 160 173 184 188 187 189 190 194 206 205 190 197 184 173 175 175 183 184 167 168 171 166 166 165 165 173 171 148 135 140 145 140 138 141 141 136 131 125 118 113 106 99 95 89 88 86 81 76 71 71 77 84 88 90 90 89 88 88 85 85 87 83 81 79
228 261 269 264 261 257 254 255 258 260 247 247 251 244 242 255 249 247 242 190 175 218 227 188 171 215 307 36 15 337 324 322 307 288 244 185 192 187 185 184 186 195 195 193 211 190 170 173 178 185 183 169 169 171 168 168 167 169 177 170 149 144 151 147 141 145 149 146 143 141 136 131 126 118 113 109 102 99 97 92 87 83 83 83 87 92 92 91 90 89 88 88 88 86 85 90 90
256 246 257 261 247 245 253 252 246 252 252 246 251 250 246 248 248 258 251 149 155 225 228 171 150 161 134 75 34 13 6 332 325 344 8 22 5 199 192 192 190 188 179 181 191 185 170 173 179 184 179 169 170 171 170 168 167 171 178 168 153 152 155 148 147 153 156 153 153 150 143 136 135 136 133 125 120 117 109 105 101 97 96 94 95 98 98 94 93 93 90 88 89 88 87 90 92
254 248 250 260 249 242 250 248 239 241 253 262 273 271 255 241 249 265 223 136 162 204 171 153 157 154 128 108 101 84 60 357 8 32 23 16 4 323 221 201 192 186 181 181 182 181 180 180 181 183 176 169 170 171 170 169 168 172 177 171 158 155 157 153 153 159 160 159 159 155 149 145 147 150 151 146 139 131 122 118 116 114 113 108 105 104 102 103 101 97 94 91 88 85 84 83 82
226 240 238 244 245 249 247 244 246 247 260 267 270 285 275 247 241 242 203 148 169 168 139 146 146 129 127 143 144 123 102 54 44 50 37 12 347 321 287 218 186 182 185 183 175 175 182 183 180 177 170 168 170 169 169 170 170 173 176 173 163 159 160 157 158 162 163 163 163 162 158 156 159 161 161 157 151 145 137 132 130 128 126 121 118 117 113 112 109 104 99 94 91 90 90 88 87
216 235 251 250 238 244 252 252 255 259 278 273 253 246 255 255 254 206 161 139 147 155 148 142 130 126 151 174 146 110 93 76 65 60 57 32 354 333 327 317 172 173 172 158 149 160 172 187 192 179 166 165 168 166 169 173 172 173 175 173 168 164 163 161 162 166 168 167 167 170 167 164 164 167 167 164 159 156 151 148 145 138 136 134 131 130 125 118 114 114 112 107 104 103 97 92 93
214 218 249 254 237 239 258 271 277 283 287 269 243 231 239 224 39 137 149 141 155 172 160 149 151 159 162 154 123 97 86 86 83 62 56 45 21 351 335 358 121 150 148 141 146 157 165 182 213 204 167 162 166 164 167 176 175 172 174 173 171 169 167 166 167 169 172 172 172 174 175 171 169 170 171 169 165 164 163 160 158 152 149 147 140 137 136 133 129 127 124 119 113 107 100 95 91
296 238 244 262 255 246 262 271 270 265 260 257 232 234 240 207 197 201 177 174 189 180 160 162 164 153 134 118 110 105 93 86 86 65 51 45 28 23 3 17 93 130 141 149 159 164 169 178 195 208 179 161 164 164 165 176 178 173 173 173 173 172 171 172 171 169 173 177 176 177 178 177 175 172 173 173 168 169 171 167 165 163 159 157 152 151 152 149 147 143 139 136 129 123 123 122 110
282 262 264 301 257 242 248 266 263 249 254 259 242 240 240 236 214 184 190 209 206 179 170 174 158 137 130 122 109 104 100 92 93 84 64 55 32 25 23 30 83 118 143 157 164 164 173 183 186 189 181 161 159 163 166 174 176 173 175 174 174 173 172 176 178 172 173 179 178 176 180 183 176 172 174 173 170 173 174 171 173 171 167 168 165 165 165 161 161 159 155 153 150 148 145 136 128
254 271 297 298 263 251 242 252 261 256 259 259 256 255 247 253 245 174 188 208 202 185 189 184 162 156 155 133 122 116 113 107 99 98 85 70 59 40 25 32 81 111 136 147 158 160 172 195 190 177 169 154 152 160 165 170 171 171 175 175 176 176 171 173 178 176 174 179 183 178 181 187 181 174 174 171 171 176 177 176 180 179 178 179 177 177 177 173 173 170 167 168 164 163 158 151 154
228 242 270 273 277 279 257 251 262 264 269 270 269 268 256 274 296 165 177 198 201 194 201 196 174 171 156 130 132 127 119 117 105 102 99 85 80 66 37 34 64 79 99 120 153 182 176 200 189 169 160 149 149 154 158 165 172 175 175 176 175 172 171 170 168 166 166 172 182 184 185 188 183 176 172 170 176 181 181 184 186 187 188 188 187 189 186 183 184 179 176 179 175 173 172 169 173
239 225 237 246 257 264 258 255 251 256 265 270 274 279 285 306 314 139 171 198 205 199 206 211 183 162 144 130 137 131 116 116 112 110 111 104 99 95 75 53 52 52 64 88 123 199 190 179 154 145 144 141 145 151 155 161 168 168 166 172 173 170 180 184 172 155 160 167 178 192 204 198 186 180 174 172 180 187 187 190 193 195 196 195 194 195 193 191 193 189 187 186 180 181 187 182 180
288 278 258 257 262 265 270 262 254 264 276 281 278 282 308 234 237 120 170 193 198 198 200 206 181 149 133 126 129 131 125 120 116 118 119 118 115 109 103 92 70 55 50 55 60 86 140 140 129 128 130 134 146 161 164 165 166 170 174 178 177 175 181 186 186 182 174 177 184 198 221 207 187 185 183 179 184 192 194 196 203 206 204 203 203 200 198 197 198 198 197 195 187 188 195 188 183